Stevensville, MD

8:52 AM EST on January 17, 2018 (GMT -0500)
Stevensville

Weather History for KW29 - November, 2012

Change the Weather History Date:

Thursday, November 8, 2012

  Actual Average (KESN) Record (KESN)
Temperature  
Mean Temperature 46 °F -  
Max Temperature 53 °F 58 °F 78 °F (1975)
Min Temperature 39 °F 39 °F 23 °F (1960)
Degree Days  
Heating Degree Days 19    
Moisture  
Dew Point 25 °F    
Average Humidity 45    
Maximum Humidity 87    
Minimum Humidity 30    
Precipitation  
Precipitation 0.00 in - - ()
Sea Level Pressure  
Sea Level Pressure 29.92 in    
Wind  
Wind Speed 13 mph (NW)    
Max Wind Speed 17 mph    
Max Gust Speed 24 mph    
Visibility 10 miles    
Events      
Averages and records for this station are not official NWS values.
T = Trace of Precipitation, MM = Missing Value Source: NWS Daily Summary

Daily Weather History Graph

Daily Weather History Graph

Search for Another Location

Airport or City:

Trip Planner

Search our weather history database for the weather conditions in past years. The results will help you decide how hot, cold, wet, or windy it might be!

Date:

Astronomy

Nov. 08, 2012 Rise Set
Actual Time 6:40 AM EST 4:56 PM EST
Civil Twilight 6:12 AM EST 5:24 PM EST
Nautical Twilight 5:40 AM EST 5:56 PM EST
Astronomical Twilight 5:09 AM EST 6:28 PM EST
Moon 12:36 AM EST (11/8) 1:34 PM EST (11/8)
Length of Visible Light 11h 12m
Length of Day
10h 15m
Waning Crescent, 33% of the Moon is Illuminated
Nov 8
Waning Crescent
Nov 13
New
Nov 20
First Quarter
Nov 28
Full
Dec 6
Last Quarter

Hourly Weather History & Observations

Time (EST) Temp. Windchill Dew Point Humidity Pressure Visibility Wind Dir Wind Speed Gust Speed Precip Events Conditions
12:00 AM 39.2 °F 30.8 °F 35.6 °F 87% 29.87 in 10.0 mi NNW 15.0 mph 23.0 mph N/A   Scattered Clouds
12:21 AM 41.0 °F 33.1 °F 33.8 °F 76% 29.87 in 10.0 mi NNW 15.0 mph 24.2 mph N/A   Mostly Cloudy
12:42 AM 41.0 °F 33.9 °F 33.8 °F 76% 29.87 in 10.0 mi NNW 12.7 mph 20.7 mph N/A   Overcast
1:04 AM 41.0 °F 33.1 °F 32.0 °F 70% 29.87 in 10.0 mi NNW 15.0 mph 19.6 mph N/A   Overcast
1:25 AM 41.0 °F 33.5 °F 32.0 °F 70% 29.87 in 10.0 mi NNW 13.8 mph 19.6 mph N/A   Mostly Cloudy
1:46 AM 41.0 °F 33.9 °F 32.0 °F 70% 29.87 in 10.0 mi NNW 12.7 mph 19.6 mph N/A   Mostly Cloudy
2:07 AM 41.0 °F 33.9 °F 32.0 °F 70% 29.87 in 10.0 mi North 12.7 mph 20.7 mph N/A   Mostly Cloudy
2:29 AM 41.0 °F 33.9 °F 32.0 °F 70% 29.87 in 10.0 mi NNW 12.7 mph 19.6 mph N/A   Overcast
2:50 AM 42.8 °F 37.0 °F 32.0 °F 66% 29.87 in 10.0 mi NW 10.4 mph 18.4 mph N/A   Overcast
3:11 AM 42.8 °F 37.0 °F 30.2 °F 61% 29.86 in 10.0 mi NW 10.4 mph - N/A   Overcast
3:54 AM 42.8 °F 36.2 °F 26.6 °F 53% 29.87 in 10.0 mi NNW 12.7 mph 19.6 mph N/A   Mostly Cloudy
4:15 AM 42.8 °F 37.0 °F 26.6 °F 53% 29.87 in 10.0 mi NW 10.4 mph 20.7 mph N/A   Scattered Clouds
4:36 AM 42.8 °F 36.6 °F 24.8 °F 49% 29.87 in 10.0 mi NNW 11.5 mph 18.4 mph N/A   Scattered Clouds
4:58 AM 42.8 °F 36.6 °F 23.0 °F 46% 29.87 in 10.0 mi NW 11.5 mph 19.6 mph N/A   Scattered Clouds
5:19 AM 42.8 °F 37.0 °F 26.6 °F 53% 29.87 in 10.0 mi NW 10.4 mph - N/A   Scattered Clouds
6:02 AM 41.0 °F 33.5 °F 23.0 °F 49% 29.88 in 10.0 mi NW 13.8 mph 18.4 mph N/A   Scattered Clouds
6:23 AM 42.8 °F 37.5 °F 23.0 °F 46% 29.89 in 10.0 mi NW 9.2 mph - N/A   Scattered Clouds
6:44 AM 42.8 °F 36.6 °F 23.0 °F 46% 29.89 in 10.0 mi NW 11.5 mph 17.3 mph N/A   Scattered Clouds
7:27 AM 42.8 °F 35.8 °F 21.2 °F 42% 29.90 in 10.0 mi WNW 13.8 mph 17.3 mph N/A   Scattered Clouds
7:48 AM 42.8 °F 37.0 °F 23.0 °F 46% 29.91 in 10.0 mi WNW 10.4 mph - N/A   Scattered Clouds
8:09 AM 42.8 °F 36.6 °F 23.0 °F 46% 29.92 in 10.0 mi WNW 11.5 mph - N/A   Clear
8:30 AM 42.8 °F 36.2 °F 23.0 °F 46% 29.92 in 10.0 mi WNW 12.7 mph - N/A   Clear
8:51 AM 42.8 °F 37.0 °F 23.0 °F 46% 29.92 in 10.0 mi WNW 10.4 mph - N/A   Clear
9:13 AM 44.6 °F 39.7 °F 23.0 °F 43% 29.92 in 10.0 mi WNW 9.2 mph - N/A   Clear
9:34 AM 46.4 °F 41.1 °F 23.0 °F 40% 29.92 in 10.0 mi NW 11.5 mph - N/A   Clear
9:55 AM 46.4 °F 41.1 °F 23.0 °F 40% 29.93 in 10.0 mi NW 11.5 mph 21.9 mph N/A   Clear
10:16 AM 46.4 °F 39.8 °F 21.2 °F 37% 29.93 in 10.0 mi NW 16.1 mph - N/A   Clear
10:38 AM 46.4 °F 40.7 °F 21.2 °F 37% 29.93 in 10.0 mi NW 12.7 mph 23.0 mph N/A   Clear
10:59 AM 46.4 °F 41.1 °F 21.2 °F 37% 29.93 in 10.0 mi NW 11.5 mph 17.3 mph N/A   Clear
11:20 AM 50.0 °F - 21.2 °F 32% 29.92 in 10.0 mi NW 12.7 mph 21.9 mph N/A   Clear
11:41 AM 48.2 °F - 21.2 °F 34% 29.91 in 10.0 mi NNW 12.7 mph 24.2 mph N/A   Clear
12:03 PM 50.0 °F - 21.2 °F 32% 29.90 in 10.0 mi NW 16.1 mph 21.9 mph N/A   Clear
12:24 PM 51.8 °F - 23.0 °F 33% 29.89 in - NNW 13.8 mph 20.7 mph N/A   Unknown
12:45 PM 51.8 °F - 23.0 °F 33% 29.89 in 10.0 mi NW 12.7 mph 23.0 mph N/A   Clear
1:06 PM 51.8 °F - 23.0 °F 33% 29.89 in 10.0 mi NW 17.3 mph 23.0 mph N/A   Clear
1:28 PM 51.8 °F - 21.2 °F 30% 29.89 in 10.0 mi NW 13.8 mph 23.0 mph N/A   Clear
1:49 PM 51.8 °F - 21.2 °F 30% 29.89 in 10.0 mi NW 10.4 mph 23.0 mph N/A   Clear
2:10 PM 53.6 °F - 23.0 °F 30% 29.89 in 10.0 mi NW 10.4 mph 17.3 mph N/A   Clear
2:31 PM 51.8 °F - 23.0 °F 33% 29.89 in 10.0 mi NNW 13.8 mph 23.0 mph N/A   Clear
2:53 PM 51.8 °F - 21.2 °F 30% 29.90 in 10.0 mi NW 12.7 mph 23.0 mph N/A   Clear
3:14 PM 51.8 °F - 23.0 °F 33% 29.89 in 10.0 mi NW 11.5 mph 18.4 mph N/A   Clear
3:35 PM 51.8 °F - 21.2 °F 30% 29.90 in 10.0 mi NW 15.0 mph 21.9 mph N/A   Clear
3:56 PM 51.8 °F - 21.2 °F 30% 29.91 in 10.0 mi NNW 15.0 mph 24.2 mph N/A   Clear
4:18 PM 51.8 °F - 21.2 °F 30% 29.91 in 10.0 mi NW 12.7 mph 21.9 mph N/A   Clear
4:39 PM 51.8 °F - 21.2 °F 30% 29.92 in 10.0 mi NW 12.7 mph 20.7 mph N/A   Clear
5:00 PM 50.0 °F - 21.2 °F 32% 29.92 in 10.0 mi NW 15.0 mph 23.0 mph N/A   Clear
5:21 PM 50.0 °F - 23.0 °F 35% 29.93 in 10.0 mi NW 12.7 mph 18.4 mph N/A   Clear
5:42 PM 50.0 °F - 21.2 °F 32% 29.94 in 10.0 mi NW 13.8 mph 24.2 mph N/A   Clear
6:04 PM 50.0 °F - 23.0 °F 35% 29.96 in 10.0 mi WNW 11.5 mph - N/A   Clear
6:25 PM 48.2 °F - 21.2 °F 34% 29.97 in 10.0 mi WNW 11.5 mph - N/A   Clear
6:46 PM 48.2 °F - 23.0 °F 37% 29.97 in 10.0 mi WNW 12.7 mph 19.6 mph N/A   Clear
7:07 PM 48.2 °F - 23.0 °F 37% 29.97 in 10.0 mi WNW 13.8 mph 17.3 mph N/A   Clear
7:29 PM 46.4 °F 41.1 °F 23.0 °F 40% 29.98 in 10.0 mi WNW 11.5 mph - N/A   Clear
7:50 PM 46.4 °F 40.7 °F 23.0 °F 40% 29.98 in 10.0 mi WNW 12.7 mph 17.3 mph N/A   Clear
8:11 PM 46.4 °F 40.7 °F 24.8 °F 43% 29.99 in 10.0 mi WNW 12.7 mph 20.7 mph N/A   Clear
8:54 PM 46.4 °F 41.1 °F 24.8 °F 43% 30.00 in 10.0 mi NW 11.5 mph 17.3 mph N/A   Clear
9:15 PM 46.4 °F 41.5 °F 23.0 °F 40% 30.00 in 10.0 mi NW 10.4 mph 18.4 mph N/A   Clear
9:36 PM 46.4 °F 41.1 °F 24.8 °F 43% 30.01 in 10.0 mi NW 11.5 mph 23.0 mph N/A   Clear
9:57 PM 46.4 °F 40.7 °F 24.8 °F 43% 30.01 in 10.0 mi NW 12.7 mph 19.6 mph N/A   Clear
10:19 PM 46.4 °F 40.1 °F 26.6 °F 46% 30.01 in 10.0 mi NW 15.0 mph 18.4 mph N/A   Clear
10:40 PM 46.4 °F 41.1 °F 26.6 °F 46% 30.02 in 10.0 mi NW 11.5 mph 16.1 mph N/A   Clear
11:01 PM 44.6 °F 38.8 °F 26.6 °F 49% 30.02 in 10.0 mi NW 11.5 mph 18.4 mph N/A   Clear
11:22 PM 46.4 °F 41.5 °F 28.4 °F 50% 30.03 in 10.0 mi NW 10.4 mph 17.3 mph N/A   Clear
11:44 PM 44.6 °F 39.2 °F 28.4 °F 53% 30.03 in 10.0 mi NW 10.4 mph 17.3 mph N/A   Clear